DW5684 Weather Reports


Display with metric or nautical units.
time (UTC)temp
F
wind
direction
speed
MPH
gust
MPH
rain 1hr
in
rain 24hr
in
rain mn
in
humidity
%
barometer
mb
20260506082312 45 9 0.0 4.0 0.00 0.03 0.00 93 1014.4
20260506081812 45 340 0.0 6.0 0.00 0.03 0.00 93 1014.3
20260506081326 45 326 1.0 6.0 0.00 0.03 0.00 93 1014.7
20260506080759 45 312 0.0 1.0 0.00 0.03 0.00 94 1014.3
20260506080314 45 345 0.0 1.0 0.00 0.03 0.00 93 1013.9
20260506073307 45 1 1.0 3.0 0.00 0.11 0.00 92 1013.6
20260506072802 45 289 0.0 2.0 0.00 0.11 0.00 92 1013.8
20260506072318 45 315 1.0 3.0 0.00 0.11 0.00 92 1014.0
20260506071812 45 324 0.0 3.0 0.00 0.11 0.00 91 1013.8
20260506071308 45 295 0.0 4.0 0.00 0.11 0.00 91 1014.1
20260506070803 46 311 0.0 4.0 0.00 0.11 0.00 91 1014.3
20260506070302 46 307 0.0 2.0 0.00 0.11 0.00 90 1014.3
20260506062305 46 323 0.0 0.0 0.00 0.11 0.00 90 1015.2
20260506061816 46 258 0.0 0.0 0.00 0.11 0.00 89 1015.1
20260506061311 46 238 0.0 0.0 0.00 0.11 0.00 89 1015.0
20260506060826 45 108 0.0 0.0 0.00 0.11 0.00 89 1015.0
20260506060300 45 302 0.0 0.0 0.00 0.11 0.00 88 1015.0
20260506051313 45 292 0.0 2.0 0.00 0.11 0.00 88 1014.7
20260506050808 45 347 0.0 2.0 0.00 0.11 0.00 88 1014.4
20260506050324 45 210 0.0 3.0 0.00 0.11 0.00 88 1014.3
20260506044810 45 274 0.0 6.0 0.00 0.11 0.11 88 1013.9
20260506044305 45 108 0.0 6.0 0.00 0.11 0.11 89 1013.9
20260506043800 45 330 0.0 1.0 0.00 0.11 0.11 89 1013.7
20260506043315 46 18 0.0 3.0 0.00 0.11 0.11 89 1013.5
20260506042810 45 86 0.0 3.0 0.00 0.11 0.11 88 1013.8
20260506042306 46 276 0.0 2.0 0.00 0.11 0.11 89 1013.8
20260506041825 46 258 0.0 1.0 0.00 0.11 0.11 89 1013.9
20260506041319 46 316 0.0 2.0 0.00 0.11 0.11 89 1013.8
20260506040814 46 90 0.0 4.0 0.00 0.11 0.11 89 1013.7
20260506040309 46 296 1.0 4.0 0.00 0.11 0.11 89 1013.6
20260506035804 46 110 0.0 4.0 0.00 0.11 0.11 89 1013.6
20260506035338 46 159 1.0 4.0 0.00 0.11 0.11 90 1013.6
20260506034812 46 324 0.0 5.0 0.00 0.11 0.11 90 1013.4
20260506034307 46 327 1.0 5.0 0.00 0.11 0.11 90 1013.1
20260506033821 46 279 0.0 5.0 0.00 0.11 0.11 91 1013.2
20260506033300 46 34 1.0 5.0 0.00 0.11 0.11 91 1013.1
20260506032814 46 333 1.0 5.0 0.00 0.11 0.11 91 1013.1
20260506032310 46 349 1.0 5.0 0.00 0.11 0.11 91 1013.3
20260506031804 46 317 0.0 5.0 0.00 0.11 0.11 91 1013.3
20260506031340 46 240 1.0 4.0 0.00 0.11 0.11 92 1013.2
20260506030813 46 304 1.0 3.0 0.00 0.11 0.11 92 1013.2
20260506030308 46 323 0.0 5.0 0.00 0.11 0.11 92 1013.6
20260506025823 46 322 0.0 5.0 0.00 0.11 0.11 92 1013.5
20260506025300 46 36 0.0 5.0 0.00 0.11 0.11 92 1013.4
20260506024816 46 113 0.0 6.0 0.00 0.11 0.11 92 1013.3
20260506024311 46 352 1.0 4.0 0.00 0.11 0.11 93 1013.0
20260506023826 46 338 0.0 5.0 0.00 0.11 0.11 92 1012.7
20260506023300 46 345 1.0 7.0 0.00 0.11 0.11 93 1012.7
20260506022815 46 305 2.0 7.0 0.00 0.11 0.11 93 1012.7
20260506022308 46 311 1.0 6.0 0.00 0.11 0.11 93 1012.3
20260506021803 46 7 1.0 5.0 0.00 0.11 0.11 92 1012.4
20260506021317 46 19 1.0 5.0 0.00 0.11 0.11 93 1012.4
20260506020816 46 302 1.0 6.0 0.00 0.11 0.11 93 1012.3
20260506020311 46 267 1.0 6.0 0.00 0.11 0.11 93 1012.4
20260506015806 46 156 0.0 2.0 0.00 0.11 0.11 93 1012.3
20260506015322 46 288 0.0 5.0 0.00 0.11 0.11 93 1012.2
20260506014836 46 291 1.0 5.0 0.01 0.11 0.11 93 1012.2
20260506014310 46 276 0.0 5.0 0.01 0.11 0.11 93 1012.0
20260506013805 46 293 0.0 4.0 0.01 0.11 0.11 93 1012.1
20260506013259 46 348 0.0 4.0 0.01 0.11 0.11 94 1012.2
20260506012814 46 354 1.0 6.0 0.02 0.11 0.11 93 1012.2
20260506012313 46 352 1.0 6.0 0.02 0.11 0.11 93 1012.1
20260506011808 47 321 0.0 1.0 0.02 0.11 0.11 93 1012.0
20260506011303 47 317 0.0 5.0 0.02 0.11 0.11 93 1011.9
20260506010818 46 357 1.0 5.0 0.02 0.11 0.11 93 1011.8
20260506010312 46 328 0.0 3.0 0.02 0.11 0.11 93 1011.8
20260506005808 47 352 0.0 3.0 0.02 0.11 0.11 93 1011.7
20260506005305 47 81 1.0 6.0 0.02 0.11 0.11 93 1011.3
20260506004802 47 302 1.0 6.0 0.01 0.10 0.10 93 1011.3
20260506004315 47 179 0.0 0.0 0.01 0.10 0.10 93 1011.4
20260506003810 47 293 0.0 3.0 0.01 0.10 0.10 93 1011.3
20260506003303 47 298 0.0 2.0 0.00 0.09 0.09 92 1011.4
20260506002837 47 275 0.0 3.0 0.00 0.09 0.09 92 1011.7
20260506002313 47 342 1.0 4.0 0.00 0.09 0.09 91 1011.6
20260506001807 47 313 0.0 4.0 0.00 0.09 0.09 91 1011.5
20260506001303 47 352 0.0 7.0 0.00 0.09 0.09 91 1011.3
20260506000801 47 307 1.0 7.0 0.00 0.09 0.09 90 1011.3
20260506000316 47 32 2.0 7.0 0.01 0.09 0.09 90 1011.4
20260505235811 47 65 2.0 10.0 0.01 0.09 0.09 91 1011.0
20260505235326 47 11 1.0 10.0 0.01 0.09 0.09 91 1011.0
20260505234759 47 288 1.0 6.0 0.01 0.09 0.09 91 1011.1
20260505234314 47 359 2.0 8.0 0.01 0.09 0.09 91 1011.2
20260505233809 47 337 0.0 5.0 0.01 0.09 0.09 91 1011.2
20260505233324 47 131 2.0 6.0 0.01 0.09 0.09 91 1011.0
20260505232801 47 285 1.0 7.0 0.01 0.09 0.09 91 1010.7
20260505232316 47 307 1.0 10.0 0.01 0.09 0.09 90 1010.9
20260505231812 47 78 1.0 10.0 0.01 0.09 0.09 89 1010.9
20260505231307 47 76 1.0 7.0 0.01 0.09 0.09 89 1010.7
20260505230802 47 324 0.0 8.0 0.01 0.09 0.09 89 1010.9
20260505230316 47 47 2.0 8.0 0.00 0.08 0.08 87 1010.6
20260505225809 47 319 3.0 9.0 0.00 0.08 0.08 87 1010.5
20260505225305 47 68 2.0 10.0 0.00 0.08 0.08 88 1010.6
20260505224816 47 186 2.0 10.0 0.00 0.08 0.08 87 1010.6
20260505224313 47 316 2.0 7.0 0.00 0.08 0.08 88 1010.4
20260505223807 47 359 2.0 7.0 0.00 0.08 0.08 88 1010.8
20260505223301 47 314 2.0 8.0 0.00 0.08 0.08 87 1010.8
20260505222816 47 26 2.0 8.0 0.00 0.08 0.08 87 1010.6
20260505222311 48 221 2.0 8.0 0.00 0.08 0.08 87 1010.4
20260505221806 48 342 1.0 8.0 0.00 0.08 0.08 89 1010.4
20260505221301 48 316 2.0 6.0 0.00 0.08 0.08 88 1010.3
20260505220816 48 126 3.0 8.0 0.00 0.08 0.08 88 1010.4
20260505220331 48 330 0.0 5.0 0.00 0.08 0.08 87 1010.7
20260505215809 48 324 1.0 7.0 0.00 0.08 0.08 87 1010.5
20260505215305 48 293 1.0 7.0 0.00 0.08 0.08 85 1010.5
20260505214800 48 293 2.0 6.0 0.00 0.08 0.08 84 1010.7
20260505214315 49 271 2.0 5.0 0.00 0.08 0.08 84 1010.9
20260505213810 49 356 2.0 7.0 0.00 0.08 0.08 83 1010.9
20260505213305 49 314 2.0 7.0 0.00 0.08 0.08 82 1010.7
20260505212800 49 15 2.0 8.0 0.00 0.08 0.08 83 1010.7
20260505212319 49 287 2.0 8.0 0.00 0.08 0.08 83 1010.5
20260505211814 49 360 2.0 6.0 0.00 0.08 0.08 82 1010.7
20260505211309 49 290 2.0 8.0 0.00 0.08 0.08 83 1010.6
20260505210804 49 282 4.0 8.0 0.00 0.08 0.08 83 1010.3
20260505210318 49 29 1.0 6.0 0.00 0.08 0.08 83 1010.4
20260505205813 49 337 3.0 11.0 0.00 0.08 0.08 83 1010.4
20260505205328 50 281 4.0 11.0 0.00 0.08 0.08 82 1010.6
20260505204802 50 323 1.0 9.0 0.00 0.08 0.08 82 1010.7
20260505204301 50 30 2.0 10.0 0.00 0.08 0.08 81 1010.8
20260505203836 50 287 2.0 9.0 0.00 0.08 0.08 81 1010.6
20260505203329 50 24 1.0 9.0 0.00 0.08 0.08 81 1010.6
20260505202803 50 305 1.0 8.0 0.00 0.08 0.08 79 1010.5
20260505202318 51 157 2.0 8.0 0.00 0.08 0.08 78 1010.3
20260505201813 51 316 2.0 9.0 0.00 0.08 0.08 78 1010.4
20260505201308 51 311 3.0 9.0 0.00 0.08 0.08 78 1010.4
20260505200803 51 335 2.0 11.0 0.00 0.08 0.08 76 1010.4
20260505200301 51 326 4.0 11.0 0.00 0.08 0.08 75 1010.4
20260505195816 51 314 3.0 9.0 0.00 0.08 0.08 76 1010.1
20260505195312 51 313 2.0 9.0 0.00 0.08 0.08 76 1010.2
20260505194807 51 310 3.0 8.0 0.00 0.08 0.08 76 1010.4
20260505194300 52 339 3.0 8.0 0.00 0.08 0.08 76 1010.4
20260505193814 52 359 3.0 8.0 0.00 0.08 0.08 76 1010.1
20260505193309 52 123 3.0 8.0 0.00 0.08 0.08 76 1010.1
20260505192804 52 330 3.0 7.0 0.00 0.08 0.08 75 1010.1
20260505192305 52 158 3.0 10.0 0.00 0.08 0.08 74 1010.1
20260505191816 52 285 4.0 12.0 0.00 0.08 0.08 74 1010.0
20260505191309 53 94 4.0 12.0 0.00 0.08 0.08 74 1010.1
20260505190803 53 297 4.0 11.0 0.00 0.08 0.08 73 1010.0
20260505190317 53 296 4.0 12.0 0.00 0.08 0.08 73 1010.0
20260505185811 53 339 4.0 13.0 0.00 0.08 0.08 74 1010.1
20260505185306 53 359 4.0 13.0 0.00 0.08 0.08 73 1010.2
20260505184800 53 331 4.0 9.0 0.00 0.08 0.08 74 1010.1
20260505184319 53 326 3.0 9.0 0.00 0.08 0.08 74 1010.1
20260505183813 53 339 2.0 9.0 0.00 0.08 0.08 76 1010.0
20260505183307 53 307 3.0 9.0 0.00 0.08 0.08 77 1010.1
20260505182802 53 117 2.0 8.0 0.00 0.08 0.08 77 1010.2
20260505182337 53 306 2.0 10.0 0.00 0.08 0.08 77 1010.2
20260505181810 53 351 4.0 13.0 0.00 0.08 0.08 75 1010.4
20260505181304 53 325 5.0 13.0 0.00 0.08 0.08 76 1010.2
20260505180800 53 284 4.0 8.0 0.00 0.08 0.08 79 1010.1
20260505180334 53 286 3.0 14.0 0.00 0.08 0.08 79 1009.9
20260505175811 53 299 4.0 14.0 0.00 0.08 0.08 78 1009.8
20260505175306 53 299 2.0 11.0 0.00 0.08 0.08 79 1009.7
20260505174800 53 323 4.0 10.0 0.00 0.08 0.08 78 1009.6
20260505174315 53 335 4.0 11.0 0.00 0.08 0.08 78 1009.5
20260505173810 54 235 4.0 12.0 0.00 0.08 0.08 78 1009.5
20260505173304 54 344 2.0 12.0 0.00 0.08 0.08 81 1009.5
20260505172839 54 295 2.0 7.0 0.00 0.08 0.08 82 1009.4
20260505172312 53 302 3.0 8.0 0.00 0.08 0.08 82 1009.6
20260505171809 52 96 2.0 8.0 0.00 0.08 0.08 83 1009.8
20260505171323 52 101 1.0 9.0 0.00 0.08 0.08 83 1010.0
20260505170816 52 147 3.0 9.0 0.00 0.08 0.08 83 1009.9
20260505170310 52 276 1.0 7.0 0.00 0.08 0.08 84 1010.0
20260505165805 52 314 2.0 10.0 0.00 0.08 0.08 84 1010.0
20260505165300 52 352 3.0 10.0 0.00 0.08 0.08 84 1010.0
20260505164815 53 37 2.0 11.0 0.00 0.08 0.08 84 1009.9
20260505164310 53 303 3.0 11.0 0.00 0.08 0.08 84 1009.9
20260505163825 53 306 3.0 8.0 0.00 0.08 0.08 85 1009.7
20260505163303 53 305 3.0 8.0 0.00 0.08 0.08 83 1009.7
20260505162838 53 273 1.0 9.0 0.00 0.08 0.08 84 1009.6
20260505162332 53 330 3.0 9.0 0.00 0.08 0.08 83 1009.6
20260505161825 53 317 2.0 9.0 0.00 0.08 0.08 84 1009.6
20260505161259 53 331 2.0 10.0 0.00 0.08 0.08 85 1009.4
20260505160813 53 354 3.0 10.0 0.00 0.08 0.08 83 1009.6
20260505160308 54 290 3.0 8.0 0.00 0.08 0.08 84 1009.4
20260505153339 53 18 1.0 7.0 0.00 0.08 0.08 84 1009.7
20260505152813 53 316 1.0 6.0 0.00 0.08 0.08 84 1009.8
20260505152308 53 12 1.0 10.0 0.00 0.08 0.08 85 1009.6
20260505151802 53 352 3.0 10.0 0.00 0.08 0.08 84 1009.8
20260505151317 53 297 1.0 7.0 0.00 0.08 0.08 86 1009.9
20260505150812 53 349 3.0 12.0 0.00 0.08 0.08 85 1009.9
20260505150307 53 318 2.0 12.0 0.00 0.08 0.08 86 1010.0
20260505140308 52 291 2.0 8.0 0.00 0.08 0.08 88 1008.2
20260505130307 54 309 3.0 12.0 0.00 0.08 0.08 86 1008.6
20260505124814 55 319 2.0 6.0 0.00 0.08 0.08 86 1008.1
20260505124309 55 336 2.0 7.0 0.00 0.08 0.08 87 1008.0
20260505123804 55 335 2.0 7.0 0.00 0.08 0.08 86 1008.1
20260505123339 55 300 1.0 6.0 0.00 0.08 0.08 87 1007.9
20260505122813 55 295 2.0 6.0 0.00 0.08 0.08 87 1007.7
20260505122325 55 151 1.0 5.0 0.00 0.08 0.08 88 1007.6
20260505121818 55 328 0.0 4.0 0.00 0.08 0.08 88 1007.6
20260505121313 54 291 1.0 4.0 0.00 0.08 0.08 88 1007.5
20260505120812 55 330 1.0 6.0 0.00 0.08 0.08 88 1007.6
20260505120307 55 281 0.0 6.0 0.00 0.08 0.08 88 1007.4
20260505115801 55 94 2.0 5.0 0.00 0.08 0.08 89 1007.3
20260505115315 55 359 1.0 6.0 0.00 0.08 0.08 89 1007.1
20260505114830 55 316 1.0 5.0 0.00 0.08 0.08 90 1006.8
20260505114305 54 276 1.0 5.0 0.00 0.08 0.08 89 1006.7
20260505113759 55 242 0.0 4.0 0.00 0.08 0.08 89 1006.5
20260505113314 55 340 0.0 4.0 0.00 0.08 0.08 89 1006.5
20260505112813 55 252 1.0 5.0 0.00 0.08 0.08 89 1006.8
20260505112307 55 318 2.0 5.0 0.00 0.08 0.08 89 1006.8
20260505111800 55 311 2.0 6.0 0.00 0.08 0.08 88 1007.1
20260505111314 55 304 2.0 6.0 0.00 0.08 0.08 88 1006.8
20260505110829 56 338 1.0 5.0 0.00 0.08 0.08 88 1006.6
20260505110323 56 302 0.0 6.0 0.00 0.08 0.08 89 1006.7
20260505101816 58 297 0.0 4.0 0.00 0.08 0.08 87 1006.6
20260505101311 58 314 1.0 4.0 0.00 0.08 0.08 87 1006.4
20260505100806 58 134 0.0 5.0 0.00 0.08 0.08 86 1006.6
20260505100321 59 265 1.0 8.0 0.00 0.08 0.08 86 1006.7
20260505095835 59 23 1.0 8.0 0.00 0.08 0.08 85 1006.4
20260505095329 60 338 3.0 8.0 0.00 0.08 0.08 85 1005.7
20260505094827 61 290 3.0 7.0 0.00 0.08 0.08 85 1005.4
20260505094301 61 202 0.0 6.0 0.00 0.08 0.08 85 1005.9
20260505093816 62 25 1.0 4.0 0.00 0.08 0.08 86 1006.8
20260505093310 62 328 1.0 4.0 0.00 0.08 0.08 88 1006.8
20260505092805 63 39 0.0 9.0 0.00 0.08 0.08 88 1007.1
20260505092259 62 310 2.0 9.0 0.00 0.08 0.08 88 1007.4
20260505091834 62 286 1.0 7.0 0.00 0.08 0.08 89 1007.1
20260505091308 62 305 2.0 11.0 0.00 0.08 0.08 90 1006.7
20260505090808 62 302 4.0 11.0 0.00 0.08 0.08 90 1006.8
20260505090303 62 15 2.0 6.0 0.00 0.08 0.08 91 1006.7
20260505085818 62 257 0.0 0.0 0.00 0.08 0.08 91 1005.5
20260505085313 62 257 0.0 0.0 0.00 0.08 0.08 90 1004.9
20260505084808 62 176 0.0 2.0 0.00 0.08 0.08 90 1004.6
20260505084323 62 217 1.0 2.0 0.00 0.08 0.08 90 1004.5
20260505083836 62 226 0.0 3.0 0.01 0.08 0.08 90 1004.4
20260505083310 62 200 1.0 3.0 0.02 0.08 0.08 90 1004.0
20260505082805 62 156 0.0 5.0 0.03 0.08 0.08 90 1004.0